,,PA_Meas_PMT16A,,PR_Meas_QMR101_102,,RH_Meas_QMH101,,SR_Meas_QMS101,,TA_Meas_QMH101,,GenWind,,GenWind,
time,status,PA,status,PR,status,RH,status,SR,status,TA,status,DirAvg,status,SpdAvg,
2012-07-13, 00:00:04,VALID,918.397,VALID,0,VALID,96.0169,VALID,0,VALID,19.4327,VALID,1,VALID,0,
2012-07-13, 00:01:04,VALID,918.368,VALID,0,VALID,96.0169,VALID,0,VALID,19.4327,VALID,1,VALID,0,
2012-07-13, 00:02:04,VALID,918.379,VALID,0,VALID,96.0398,VALID,0,VALID,19.4327,VALID,1,VALID,0,
2012-07-13, 00:03:04,VALID,918.358,VALID,0,VALID,96.1008,VALID,0,VALID,19.4327,VALID,1,VALID,0,
2012-07-13, 00:04:04,VALID,918.346,VALID,0,VALID,96.1084,VALID,0,VALID,19.4327,VALID,1,VALID,0,
2012-07-13, 00:05:04,VALID,918.349,VALID,0,VALID,96.055,VALID,0,VALID,19.4132,VALID,7,VALID,0,
2012-07-13, 00:06:04,VALID,918.366,VALID,0,VALID,96.0703,VALID,0,VALID,19.3937,VALID,8,VALID,0,
2012-07-13, 00:07:04,VALID,918.365,VALID,0,VALID,96.116,VALID,0,VALID,19.3742,VALID,8,VALID,0,
2012-07-13, 00:08:04,VALID,918.35,VALID,0,VALID,96.0703,VALID,0,VALID,19.3757,VALID,8,VALID,0,
2012-07-13, 00:09:04,VALID,918.339,VALID,0,VALID,96.116,VALID,0,VALID,19.3952,VALID,8,VALID,0,
2012-07-13, 00:10:04,VALID,918.344,VALID,0,VALID,96.1008,VALID,0,VALID,19.3742,VALID,28,VALID,0,
2012-07-13, 00:11:04,VALID,918.344,VALID,0,VALID,96.1084,VALID,0,VALID,19.3742,VALID,28,VALID,0,
2012-07-13, 00:12:04,VALID,918.353,VALID,0,VALID,96.2609,VALID,0,VALID,19.3937,VALID,28,VALID,0,
2012-07-13, 00:13:04,VALID,918.337,VALID,0,VALID,96.2151,VALID,0,VALID,19.4132,VALID,28,VALID,0,
2012-07-13, 00:14:04,VALID,918.314,VALID,0,VALID,96.1846,VALID,0,VALID,19.3937,VALID,28,VALID,0,
2012-07-13, 00:15:04,VALID,918.275,VALID,0,VALID,96.2075,VALID,0,VALID,19.3937,VALID,28,VALID,0,
2012-07-13, 00:16:04,VALID,918.277,VALID,0,VALID,96.2914,VALID,0,VALID,19.4132,VALID,28,VALID,0,
2012-07-13, 00:17:04,VALID,918.244,VALID,0,VALID,96.2914,VALID,0,VALID,19.4523,VALID,28,VALID,0,
2012-07-13, 00:18:04,VALID,918.219,VALID,0,VALID,96.2456,VALID,0,VALID,19.4523,VALID,28,VALID,0,
2012-07-13, 00:19:04,VALID,918.185,VALID,0,VALID,96.1846,VALID,0,VALID,19.4327,VALID,24,VALID,0,
2012-07-13, 00:20:04,VALID,918.179,VALID,0,VALID,96.2685,VALID,0,VALID,19.4523,VALID,31,VALID,0,
2012-07-13, 00:21:04,VALID,918.178,VALID,0,VALID,96.1694,VALID,0,VALID,19.4327,VALID,31,VALID,0,
2012-07-13, 00:22:04,VALID,918.175,VALID,0,VALID,96.1923,VALID,0,VALID,19.3937,VALID,31,VALID,0,
2012-07-13, 00:23:04,VALID,918.16,VALID,0,VALID,96.2533,VALID,0,VALID,19.3937,VALID,31,VALID,0,
2012-07-13, 00:24:04,VALID,918.152,VALID,0,VALID,96.2837,VALID,0,VALID,19.4132,VALID,31,VALID,0,
2012-07-13, 00:25:04,VALID,918.128,VALID,0,VALID,96.3142,VALID,0,VALID,19.4132,VALID,31,VALID,0,
2012-07-13, 00:26:04,VALID,918.128,VALID,0,VALID,96.177,VALID,0,VALID,19.3937,VALID,31,VALID,0,
2012-07-13, 00:27:04,VALID,918.13,VALID,0,VALID,96.2151,VALID,0,VALID,19.3742,VALID,31,VALID,0,
2012-07-13, 00:28:04,VALID,918.134,VALID,0,VALID,96.2609,VALID,0,VALID,19.3742,VALID,31,VALID,0,
2012-07-13, 00:29:04,VALID,918.141,VALID,0,VALID,96.3066,VALID,0,VALID,19.3742,VALID,31,VALID,0,
2012-07-13, 00:30:04,VALID,918.15,VALID,0,VALID,96.3676,VALID,0,VALID,19.3742,VALID,31,VALID,0,
2012-07-13, 00:31:04,VALID,918.125,VALID,0,VALID,96.3752,VALID,0,VALID,19.3937,VALID,31,VALID,0,
2012-07-13, 00:32:04,VALID,918.079,VALID,0,VALID,96.4286,VALID,0,VALID,19.3937,VALID,31,VALID,0,
2012-07-13, 00:33:04,VALID,918.05,VALID,0,VALID,96.3752,VALID,0,VALID,19.3937,VALID,31,VALID,0,
2012-07-13, 00:34:04,VALID,918.049,VALID,0,VALID,96.3676,VALID,0,VALID,19.3742,VALID,31,VALID,0,
2012-07-13, 00:35:04,VALID,918.054,VALID,0,VALID,96.2837,VALID,0,VALID,19.3547,VALID,31,VALID,0,
2012-07-13, 00:36:04,VALID,918.065,VALID,0,VALID,96.3295,VALID,0,VALID,19.3352,VALID,31,VALID,0,
2012-07-13, 00:37:04,VALID,918.047,VALID,0,VALID,96.3219,VALID,0,VALID,19.3157,VALID,31,VALID,0,
2012-07-13, 00:38:04,VALID,918.037,VALID,0,VALID,96.3524,VALID,0,VALID,19.3157,VALID,31,VALID,0,
2012-07-13, 00:39:04,VALID,918.036,VALID,0,VALID,96.3676,VALID,0,VALID,19.2962,VALID,31,VALID,0,
2012-07-13, 00:40:04,VALID,918.013,VALID,0,VALID,96.4057,VALID,0,VALID,19.2948,VALID,31,VALID,0,
2012-07-13, 00:41:04,VALID,918.027,VALID,0,VALID,96.4438,VALID,0.107441,VALID,19.3338,VALID,31,VALID,0,
2012-07-13, 00:42:04,VALID,918.04,VALID,0,VALID,96.4362,VALID,0,VALID,19.3143,VALID,31,VALID,0,
2012-07-13, 00:43:04,VALID,918.009,VALID,0,VALID,96.4743,VALID,0,VALID,19.3338,VALID,31,VALID,0,
2012-07-13, 00:44:04,VALID,918.009,VALID,0,VALID,96.3981,VALID,0,VALID,19.3143,VALID,31,VALID,0,
2012-07-13, 00:45:04,VALID,917.978,VALID,0,VALID,96.5277,VALID,0,VALID,19.3338,VALID,31,VALID,0,
2012-07-13, 00:46:04,VALID,917.978,VALID,0,VALID,96.4286,VALID,0.107441,VALID,19.3338,VALID,31,VALID,0,
2012-07-13, 00:47:04,VALID,917.971,VALID,0,VALID,96.421,VALID,0.107441,VALID,19.3143,VALID,31,VALID,0,
2012-07-13, 00:48:04,VALID,917.944,VALID,0,VALID,96.5353,VALID,0.107441,VALID,19.2948,VALID,31,VALID,0,
2012-07-13, 00:49:04,VALID,917.938,VALID,0,VALID,96.5734,VALID,0.107441,VALID,19.3143,VALID,31,VALID,0,
2012-07-13, 00:50:04,VALID,917.932,VALID,0,VALID,96.6039,VALID,0,VALID,19.3143,VALID,31,VALID,0,
2012-07-13, 00:51:04,VALID,917.917,VALID,0,VALID,96.5353,VALID,0,VALID,19.2948,VALID,30,VALID,0,
2012-07-13, 00:52:04,VALID,917.858,VALID,0,VALID,96.6039,VALID,0.107441,VALID,19.2948,VALID,31,VALID,0,
2012-07-13, 00:53:04,VALID,917.876,VALID,0,VALID,96.5811,VALID,0,VALID,19.2753,VALID,31,VALID,0,
2012-07-13, 00:54:04,VALID,917.863,VALID,0,VALID,96.5429,VALID,0,VALID,19.2558,VALID,31,VALID,0,
2012-07-13, 00:55:04,VALID,917.826,VALID,0,VALID,96.5506,VALID,0.107441,VALID,19.2558,VALID,30,VALID,0,
2012-07-13, 00:56:04,VALID,917.87,VALID,0,VALID,96.6268,VALID,0.107441,VALID,19.2348,VALID,31,VALID,0,
2012-07-13, 00:57:04,VALID,917.809,VALID,0,VALID,96.6344,VALID,0.107441,VALID,19.2348,VALID,31,VALID,0,
2012-07-13, 00:58:04,VALID,917.785,VALID,0,VALID,96.6649,VALID,0.107441,VALID,19.2558,VALID,30,VALID,0,
2012-07-13, 00:59:04,VALID,917.766,VALID,0,VALID,96.7335,VALID,0.107441,VALID,19.2543,VALID,30,VALID,0,
2012-07-13, 01:00:04,VALID,917.743,VALID,0,VALID,96.6268,VALID,0.107441,VALID,19.2558,VALID,31,VALID,0,
2012-07-13, 01:01:04,VALID,917.764,VALID,0,VALID,96.6954,VALID,0.107441,VALID,19.2348,VALID,31,VALID,0,
2012-07-13, 01:02:04,VALID,917.731,VALID,0,VALID,96.6878,VALID,0.107441,VALID,19.2558,VALID,31,VALID,0,
2012-07-13, 01:03:04,VALID,917.703,VALID,0,VALID,96.7259,VALID,0,VALID,19.2558,VALID,31,VALID,0,
2012-07-13, 01:04:04,VALID,917.682,VALID,0,VALID,96.6725,VALID,0.107441,VALID,19.2363,VALID,31,VALID,0,
2012-07-13, 01:05:04,VALID,917.674,VALID,0,VALID,96.6725,VALID,0,VALID,19.2363,VALID,31,VALID,0,
2012-07-13, 01:06:04,VALID,917.616,VALID,0,VALID,96.7259,VALID,0,VALID,19.1973,VALID,31,VALID,0,
2012-07-13, 01:07:04,VALID,917.638,VALID,0,VALID,96.7107,VALID,0.107441,VALID,19.1973,VALID,30,VALID,0,
2012-07-13, 01:08:04,VALID,917.597,VALID,0,VALID,96.6725,VALID,0.107441,VALID,19.1778,VALID,21,VALID,0,
2012-07-13, 01:09:04,VALID,917.583,VALID,0,VALID,96.6954,VALID,0.107441,VALID,19.1388,VALID,21,VALID,0,
2012-07-13, 01:10:04,VALID,917.54,VALID,0,VALID,96.7869,VALID,0,VALID,19.1207,VALID,21,VALID,0,
2012-07-13, 01:11:04,VALID,917.531,VALID,0,VALID,96.8784,VALID,0,VALID,19.1597,VALID,21,VALID,0,
2012-07-13, 01:12:04,VALID,917.511,VALID,0,VALID,96.8326,VALID,0,VALID,19.1597,VALID,259,VALID,0,
2012-07-13, 01:13:04,VALID,917.492,VALID,0,VALID,96.8631,VALID,0,VALID,19.1402,VALID,259,VALID,0,
2012-07-13, 01:14:04,VALID,917.421,VALID,0,VALID,96.8707,VALID,0,VALID,19.1207,VALID,259,VALID,0,
2012-07-13, 01:15:04,VALID,917.453,VALID,0,VALID,96.9089,VALID,0,VALID,19.1207,VALID,259,VALID,0,
2012-07-13, 01:16:04,VALID,917.418,VALID,0,VALID,96.947,VALID,0,VALID,19.1012,VALID,259,VALID,0,
2012-07-13, 01:17:04,VALID,917.432,VALID,0,VALID,96.9927,VALID,0,VALID,19.1207,VALID,259,VALID,0,
2012-07-13, 01:18:04,VALID,917.398,VALID,0,VALID,96.9851,VALID,0,VALID,19.1012,VALID,259,VALID,0,
2012-07-13, 01:19:04,VALID,917.348,VALID,0,VALID,97.008,VALID,0,VALID,19.1222,VALID,259,VALID,0,
2012-07-13, 01:20:04,VALID,917.307,VALID,0,VALID,96.9851,VALID,0,VALID,19.0622,VALID,259,VALID,0,
2012-07-13, 01:21:04,VALID,917.306,VALID,0,VALID,96.9927,VALID,0,VALID,19.0622,VALID,259,VALID,0,
2012-07-13, 01:22:04,VALID,917.271,VALID,0,VALID,97.008,VALID,0,VALID,19.0427,VALID,259,VALID,0,
2012-07-13, 01:23:04,VALID,917.253,VALID,0,VALID,97.0308,VALID,0,VALID,19.0427,VALID,259,VALID,0,
2012-07-13, 01:24:04,VALID,917.234,VALID,0,VALID,97.069,VALID,0,VALID,19.0427,VALID,259,VALID,0,
2012-07-13, 01:25:04,VALID,917.258,VALID,0,VALID,97.1071,VALID,0,VALID,19.0427,VALID,259,VALID,0,
2012-07-13, 01:26:04,VALID,917.227,VALID,0,VALID,97.069,VALID,0,VALID,19.0637,VALID,259,VALID,0,
2012-07-13, 01:27:04,VALID,917.203,VALID,0,VALID,97.1604,VALID,0,VALID,19.0817,VALID,259,VALID,0,
2012-07-13, 01:28:04,VALID,917.185,VALID,0,VALID,97.1376,VALID,0,VALID,19.0817,VALID,259,VALID,0,
2012-07-13, 01:29:04,VALID,917.208,VALID,0,VALID,97.1071,VALID,0,VALID,19.0817,VALID,259,VALID,0,
2012-07-13, 01:30:04,VALID,917.167,VALID,0,VALID,97.1071,VALID,0,VALID,19.0622,VALID,259,VALID,0,
2012-07-13, 01:31:04,VALID,917.158,VALID,0,VALID,97.0537,VALID,0,VALID,19.0232,VALID,259,VALID,0,
2012-07-13, 01:32:04,VALID,917.135,VALID,0,VALID,97.0232,VALID,0,VALID,18.9842,VALID,349,VALID,0,
2012-07-13, 01:33:04,VALID,917.116,VALID,0,VALID,97.0308,VALID,0,VALID,18.9842,VALID,349,VALID,0,
2012-07-13, 01:34:04,VALID,917.105,VALID,0,VALID,97.069,VALID,0,VALID,19.0037,VALID,349,VALID,0,
2012-07-13, 01:35:04,VALID,917.118,VALID,0,VALID,97.0766,VALID,0,VALID,19.0232,VALID,349,VALID,0,
2012-07-13, 01:36:04,VALID,917.095,VALID,0,VALID,97.0766,VALID,0,VALID,19.0232,VALID,349,VALID,0,
2012-07-13, 01:37:04,VALID,917.094,VALID,0,VALID,97.0613,VALID,0,VALID,19.0232,VALID,349,VALID,0,
2012-07-13, 01:38:04,VALID,917.066,VALID,0,VALID,97.0461,VALID,0,VALID,19.0232,VALID,349,VALID,0,
2012-07-13, 01:39:04,VALID,917.085,VALID,0,VALID,97.0613,VALID,0,VALID,19.0232,VALID,349,VALID,0,
2012-07-13, 01:40:04,VALID,917.082,VALID,0,VALID,97.0842,VALID,0,VALID,19.0427,VALID,349,VALID,0,
2012-07-13, 01:41:04,VALID,917.016,VALID,0,VALID,97.0613,VALID,0,VALID,19.0427,VALID,349,VALID,0,
2012-07-13, 01:42:04,VALID,917.037,VALID,0,VALID,97.0385,VALID,0,VALID,19.0427,VALID,349,VALID,0,
2012-07-13, 01:43:04,VALID,917.04,VALID,0,VALID,97.0385,VALID,0,VALID,19.0427,VALID,349,VALID,0,
2012-07-13, 01:44:04,VALID,917.063,VALID,0,VALID,97.0232,VALID,0,VALID,19.0637,VALID,349,VALID,0,
2012-07-13, 01:45:04,VALID,917.066,VALID,0,VALID,96.9851,VALID,0,VALID,19.0037,VALID,349,VALID,0,
2012-07-13, 01:46:04,VALID,917.053,VALID,0,VALID,97.008,VALID,0,VALID,18.9842,VALID,349,VALID,0,
2012-07-13, 01:47:04,VALID,917.045,VALID,0,VALID,96.9851,VALID,0,VALID,19.0037,VALID,349,VALID,0,
2012-07-13, 01:48:04,VALID,917.017,VALID,0,VALID,96.9851,VALID,0,VALID,19.0052,VALID,349,VALID,0,
2012-07-13, 01:49:04,VALID,917.015,VALID,0,VALID,96.9775,VALID,0,VALID,18.9842,VALID,349,VALID,0,
2012-07-13, 01:50:04,VALID,917.021,VALID,0,VALID,96.9546,VALID,0,VALID,18.9647,VALID,349,VALID,0,
2012-07-13, 01:51:04,VALID,917.003,VALID,0,VALID,96.9165,VALID,0,VALID,18.9452,VALID,349,VALID,0,
2012-07-13, 01:52:04,VALID,917.037,VALID,0,VALID,96.9089,VALID,0,VALID,18.9452,VALID,349,VALID,0,
2012-07-13, 01:53:04,VALID,916.995,VALID,0,VALID,96.8403,VALID,0,VALID,18.9257,VALID,349,VALID,0,
2012-07-13, 01:54:04,VALID,917.02,VALID,0,VALID,96.8403,VALID,0,VALID,18.9077,VALID,349,VALID,0,
2012-07-13, 01:55:04,VALID,917.013,VALID,0,VALID,96.8479,VALID,0,VALID,18.8882,VALID,349,VALID,0,
2012-07-13, 01:56:04,VALID,916.995,VALID,0,VALID,96.825,VALID,0,VALID,18.8477,VALID,349,VALID,0,
2012-07-13, 01:57:04,VALID,916.973,VALID,0,VALID,96.8479,VALID,0,VALID,18.8492,VALID,349,VALID,0,
2012-07-13, 01:58:04,VALID,916.988,VALID,0,VALID,96.8631,VALID,0,VALID,18.8492,VALID,349,VALID,0,
2012-07-13, 01:59:04,VALID,916.981,VALID,0,VALID,96.8784,VALID,0,VALID,18.8492,VALID,349,VALID,0,
2012-07-13, 02:00:04,VALID,916.955,VALID,0,VALID,96.8936,VALID,0,VALID,18.8087,VALID,349,VALID,0,
2012-07-13, 02:01:04,VALID,916.925,VALID,0,VALID,96.9241,VALID,0,VALID,18.8282,VALID,349,VALID,0,
2012-07-13, 02:02:04,VALID,916.916,VALID,0,VALID,96.9622,VALID,0,VALID,18.8477,VALID,349,VALID,0,
2012-07-13, 02:03:04,VALID,916.896,VALID,0,VALID,96.9698,VALID,0,VALID,18.8477,VALID,349,VALID,0,
2012-07-13, 02:04:04,VALID,916.88,VALID,0,VALID,96.9012,VALID,0,VALID,18.8492,VALID,349,VALID,0,
2012-07-13, 02:05:04,VALID,916.875,VALID,0,VALID,96.886,VALID,0,VALID,18.8492,VALID,349,VALID,0,
2012-07-13, 02:06:04,VALID,916.859,VALID,0,VALID,96.8784,VALID,0,VALID,18.8282,VALID,349,VALID,0,
2012-07-13, 02:07:04,VALID,916.821,VALID,0,VALID,96.8784,VALID,0,VALID,18.8282,VALID,349,VALID,0,
2012-07-13, 02:08:04,VALID,916.808,VALID,0,VALID,96.8555,VALID,0,VALID,18.8282,VALID,349,VALID,0,
2012-07-13, 02:09:04,VALID,916.801,VALID,0,VALID,96.8174,VALID,0,VALID,18.7892,VALID,349,VALID,0,
2012-07-13, 02:10:04,VALID,916.802,VALID,0,VALID,96.8098,VALID,0,VALID,18.7907,VALID,349,VALID,0,
2012-07-13, 02:11:04,VALID,916.789,VALID,0,VALID,96.7869,VALID,0,VALID,18.7697,VALID,349,VALID,0,
2012-07-13, 02:12:04,VALID,916.821,VALID,0,VALID,96.7869,VALID,0,VALID,18.7503,VALID,349,VALID,0,
2012-07-13, 02:13:04,VALID,916.818,VALID,0,VALID,96.7869,VALID,0,VALID,18.7113,VALID,349,VALID,0,
2012-07-13, 02:14:04,VALID,916.824,VALID,0,VALID,96.8784,VALID,0,VALID,18.7308,VALID,349,VALID,0,
2012-07-13, 02:15:04,VALID,916.823,VALID,0,VALID,96.886,VALID,0,VALID,18.7322,VALID,349,VALID,0,
2012-07-13, 02:16:04,VALID,916.842,VALID,0,VALID,96.8936,VALID,0,VALID,18.7113,VALID,349,VALID,0,
2012-07-13, 02:17:04,VALID,916.828,VALID,0,VALID,96.8936,VALID,0,VALID,18.7113,VALID,349,VALID,0,
2012-07-13, 02:18:04,VALID,916.822,VALID,0,VALID,96.8936,VALID,0,VALID,18.7113,VALID,88,VALID,0,
2012-07-13, 02:19:04,VALID,916.811,VALID,0,VALID,96.9012,VALID,0,VALID,18.7308,VALID,116,VALID,0,
2012-07-13, 02:20:04,VALID,916.816,VALID,0,VALID,96.9165,VALID,0,VALID,18.6918,VALID,117,VALID,0,
2012-07-13, 02:21:04,VALID,916.794,VALID,0,VALID,96.9089,VALID,0,VALID,18.7113,VALID,116,VALID,0,
2012-07-13, 02:22:04,VALID,916.773,VALID,0,VALID,96.947,VALID,0,VALID,18.7113,VALID,117,VALID,0,
2012-07-13, 02:23:04,VALID,916.752,VALID,0,VALID,96.9622,VALID,0,VALID,18.7113,VALID,117,VALID,0,
2012-07-13, 02:24:04,VALID,916.785,VALID,0,VALID,96.9851,VALID,0,VALID,18.7308,VALID,117,VALID,0,
2012-07-13, 02:25:04,VALID,916.748,VALID,0,VALID,97.008,VALID,0,VALID,18.7488,VALID,117,VALID,0,
2012-07-13, 02:26:04,VALID,916.737,VALID,0,VALID,97.008,VALID,0.107441,VALID,18.7697,VALID,117,VALID,0,
2012-07-13, 02:27:04,VALID,916.73,VALID,0,VALID,97.0232,VALID,0.107441,VALID,18.7697,VALID,117,VALID,0,
2012-07-13, 02:28:04,VALID,916.702,VALID,0,VALID,97.0461,VALID,0.107441,VALID,18.7488,VALID,116,VALID,0,
2012-07-13, 02:29:04,VALID,916.689,VALID,0,VALID,97.0232,VALID,0.107441,VALID,18.7683,VALID,117,VALID,0,
2012-07-13, 02:30:04,VALID,916.7,VALID,0,VALID,97.0461,VALID,0.107441,VALID,18.7683,VALID,117,VALID,0,
2012-07-13, 02:31:04,VALID,916.688,VALID,0,VALID,97.0461,VALID,0.107441,VALID,18.7892,VALID,117,VALID,0,
2012-07-13, 02:32:04,VALID,916.652,VALID,0,VALID,97.069,VALID,0,VALID,18.8087,VALID,116,VALID,0,
2012-07-13, 02:33:04,VALID,916.671,VALID,0,VALID,97.0385,VALID,0.107441,VALID,18.7878,VALID,117,VALID,0,
2012-07-13, 02:34:04,VALID,916.679,VALID,0,VALID,97.0232,VALID,0.107441,VALID,18.7488,VALID,117,VALID,0,
2012-07-13, 02:35:04,VALID,916.675,VALID,0,VALID,97.0537,VALID,0.107441,VALID,18.7293,VALID,117,VALID,0,
2012-07-13, 02:36:04,VALID,916.682,VALID,0,VALID,97.0766,VALID,0.107441,VALID,18.7488,VALID,117,VALID,0,
2012-07-13, 02:37:04,VALID,916.632,VALID,0,VALID,97.0766,VALID,0.107441,VALID,18.7683,VALID,117,VALID,0,
2012-07-13, 02:38:04,VALID,916.63,VALID,0,VALID,97.0766,VALID,0.107441,VALID,18.7697,VALID,117,VALID,0,
2012-07-13, 02:39:04,VALID,916.606,VALID,0,VALID,97.0766,VALID,0,VALID,18.7683,VALID,117,VALID,0,
2012-07-13, 02:40:04,VALID,916.583,VALID,0,VALID,97.0994,VALID,0,VALID,18.7697,VALID,117,VALID,0,
2012-07-13, 02:41:04,VALID,916.586,VALID,0,VALID,97.1299,VALID,0,VALID,18.8102,VALID,117,VALID,0,
2012-07-13, 02:42:04,VALID,916.55,VALID,0,VALID,97.069,VALID,0,VALID,18.7503,VALID,117,VALID,0,
2012-07-13, 02:43:04,VALID,916.518,VALID,0,VALID,97.0232,VALID,0,VALID,18.7308,VALID,117,VALID,0,
2012-07-13, 02:44:04,VALID,916.526,VALID,0,VALID,97.0156,VALID,0,VALID,18.7113,VALID,117,VALID,0,
2012-07-13, 02:45:04,VALID,916.505,VALID,0,VALID,97.0385,VALID,0,VALID,18.6918,VALID,117,VALID,0,
2012-07-13, 02:46:04,VALID,916.473,VALID,0,VALID,97.0994,VALID,0,VALID,18.6932,VALID,117,VALID,0,
2012-07-13, 02:47:04,VALID,916.477,VALID,0,VALID,97.1071,VALID,0,VALID,18.6723,VALID,117,VALID,0,
2012-07-13, 02:48:04,VALID,916.46,VALID,0,VALID,97.1147,VALID,0,VALID,18.6723,VALID,117,VALID,0,
2012-07-13, 02:49:04,VALID,916.466,VALID,0,VALID,97.1528,VALID,0,VALID,18.6723,VALID,117,VALID,0,
2012-07-13, 02:50:04,VALID,916.461,VALID,0,VALID,97.1681,VALID,0,VALID,18.7113,VALID,117,VALID,0,
2012-07-13, 02:51:04,VALID,916.493,VALID,0,VALID,97.1528,VALID,0,VALID,18.6528,VALID,117,VALID,0,
2012-07-13, 02:52:04,VALID,916.481,VALID,0,VALID,97.1986,VALID,0,VALID,18.6528,VALID,116,VALID,0,
2012-07-13, 02:53:04,VALID,916.431,VALID,0,VALID,97.1909,VALID,0,VALID,18.6528,VALID,114,VALID,0,
2012-07-13, 02:54:04,VALID,916.458,VALID,0,VALID,97.1833,VALID,0,VALID,18.6333,VALID,109,VALID,0,
2012-07-13, 02:55:04,VALID,916.412,VALID,0,VALID,97.1986,VALID,0,VALID,18.6528,VALID,117,VALID,0,
2012-07-13, 02:56:04,VALID,916.424,VALID,0,VALID,97.2062,VALID,0,VALID,18.5943,VALID,117,VALID,0,
2012-07-13, 02:57:04,VALID,916.429,VALID,0,VALID,97.2214,VALID,0,VALID,18.6347,VALID,124,VALID,0,
2012-07-13, 02:58:04,VALID,916.387,VALID,0,VALID,97.2214,VALID,0,VALID,18.6138,VALID,124,VALID,0,
2012-07-13, 02:59:04,VALID,916.361,VALID,0,VALID,97.2443,VALID,0,VALID,18.6347,VALID,124,VALID,0,
2012-07-13, 03:00:04,VALID,916.372,VALID,0,VALID,97.2367,VALID,0,VALID,18.6542,VALID,124,VALID,0,
2012-07-13, 03:01:04,VALID,916.318,VALID,0,VALID,97.2443,VALID,0,VALID,18.6152,VALID,124,VALID,0,
2012-07-13, 03:02:04,VALID,916.304,VALID,0,VALID,97.2443,VALID,0,VALID,18.5943,VALID,124,VALID,0,
2012-07-13, 03:03:04,VALID,916.251,VALID,0,VALID,97.2824,VALID,0,VALID,18.5943,VALID,124,VALID,0,
2012-07-13, 03:04:04,VALID,916.237,VALID,0,VALID,97.3053,VALID,0,VALID,18.5734,VALID,124,VALID,0,
2012-07-13, 03:05:04,VALID,916.219,VALID,0,VALID,97.3205,VALID,0,VALID,18.5943,VALID,161,VALID,0,
2012-07-13, 03:06:04,VALID,916.209,VALID,0,VALID,97.2977,VALID,0,VALID,18.6347,VALID,161,VALID,0,
2012-07-13, 03:07:04,VALID,916.149,VALID,0,VALID,97.3053,VALID,0,VALID,18.5943,VALID,161,VALID,0,
2012-07-13, 03:08:04,VALID,916.17,VALID,0,VALID,97.2977,VALID,0,VALID,18.6528,VALID,161,VALID,0,
2012-07-13, 03:09:04,VALID,916.138,VALID,0,VALID,97.3281,VALID,0,VALID,18.6333,VALID,161,VALID,0,
2012-07-13, 03:10:04,VALID,916.131,VALID,0,VALID,97.3281,VALID,0,VALID,18.6319,VALID,161,VALID,0,
2012-07-13, 03:11:04,VALID,916.128,VALID,0,VALID,97.3281,VALID,0.107441,VALID,18.6124,VALID,161,VALID,0,
2012-07-13, 03:12:04,VALID,916.103,VALID,0,VALID,97.3358,VALID,0,VALID,18.5539,VALID,154,VALID,0,
2012-07-13, 03:13:04,VALID,916.087,VALID,0,VALID,97.3281,VALID,0,VALID,18.5344,VALID,131,VALID,0,
2012-07-13, 03:14:04,VALID,916.113,VALID,0,VALID,97.3281,VALID,0.107441,VALID,18.5929,VALID,131,VALID,0,
2012-07-13, 03:15:04,VALID,916.097,VALID,0,VALID,97.3358,VALID,0.107441,VALID,18.5539,VALID,120,VALID,0,
2012-07-13, 03:16:04,VALID,916.083,VALID,0,VALID,97.3205,VALID,0,VALID,18.5734,VALID,123,VALID,0,
2012-07-13, 03:17:04,VALID,916.078,VALID,0,VALID,97.3358,VALID,0.107441,VALID,18.5539,VALID,123,VALID,0,
2012-07-13, 03:18:04,VALID,916.071,VALID,0,VALID,97.3205,VALID,0,VALID,18.6333,VALID,117,VALID,0,
2012-07-13, 03:19:04,VALID,916.059,VALID,0,VALID,97.2977,VALID,0.107441,VALID,18.5539,VALID,117,VALID,0,
2012-07-13, 03:20:04,VALID,916.079,VALID,0,VALID,97.2977,VALID,0,VALID,18.5748,VALID,126,VALID,0,
2012-07-13, 03:21:04,VALID,916.094,VALID,0,VALID,97.2824,VALID,0.107441,VALID,18.5539,VALID,121,VALID,0,
2012-07-13, 03:22:04,VALID,916.08,VALID,0,VALID,97.2672,VALID,0,VALID,18.5929,VALID,125,VALID,0,
2012-07-13, 03:23:04,VALID,916.083,VALID,0,VALID,97.2595,VALID,0.107441,VALID,18.5734,VALID,123,VALID,0,
2012-07-13, 03:24:04,VALID,916.064,VALID,0,VALID,97.2672,VALID,0,VALID,18.5734,VALID,123,VALID,0,
2012-07-13, 03:25:04,VALID,916.073,VALID,0,VALID,97.2367,VALID,0.107441,VALID,18.5553,VALID,123,VALID,0,
2012-07-13, 03:26:04,VALID,916.066,VALID,0,VALID,97.229,VALID,0,VALID,18.5539,VALID,123,VALID,0,
2012-07-13, 03:27:04,VALID,916.055,VALID,0,VALID,97.2595,VALID,0.107441,VALID,18.5748,VALID,123,VALID,0,
2012-07-13, 03:28:04,VALID,916.055,VALID,0,VALID,97.2443,VALID,0.107441,VALID,18.6528,VALID,123,VALID,0,
2012-07-13, 03:29:04,VALID,916.009,VALID,0,VALID,97.2443,VALID,0,VALID,18.5344,VALID,123,VALID,0,
2012-07-13, 03:30:04,VALID,916.009,VALID,0,VALID,97.229,VALID,0,VALID,18.6333,VALID,123,VALID,0,
2012-07-13, 03:31:04,VALID,915.992,VALID,0,VALID,97.229,VALID,0.107441,VALID,18.6333,VALID,123,VALID,0,
2012-07-13, 03:32:04,VALID,915.987,VALID,0,VALID,97.229,VALID,0,VALID,18.6333,VALID,123,VALID,0,
2012-07-13, 03:33:04,VALID,915.95,VALID,0,VALID,97.2062,VALID,0,VALID,18.6333,VALID,123,VALID,0,
2012-07-13, 03:34:05,VALID,915.962,VALID,0,VALID,97.1681,VALID,0,VALID,18.6333,VALID,123,VALID,0,
2012-07-13, 03:35:05,VALID,915.941,VALID,0,VALID,97.1528,VALID,0.107441,VALID,18.5344,VALID,123,VALID,0,
2012-07-13, 03:36:05,VALID,915.947,VALID,0,VALID,97.1376,VALID,0,VALID,18.6513,VALID,123,VALID,0,
2012-07-13, 03:37:05,VALID,915.919,VALID,0,VALID,97.1223,VALID,0,VALID,18.6333,VALID,123,VALID,0,
2012-07-13, 03:38:05,VALID,915.874,VALID,0,VALID,97.1147,VALID,0,VALID,18.4954,VALID,123,VALID,0,
2012-07-13, 03:39:05,VALID,915.917,VALID,0,VALID,97.0994,VALID,0.107441,VALID,18.6333,VALID,123,VALID,0,
2012-07-13, 03:40:05,VALID,915.899,VALID,0,VALID,97.069,VALID,0,VALID,18.5553,VALID,123,VALID,0,
2012-07-13, 03:41:05,VALID,915.903,VALID,0,VALID,96.9851,VALID,0,VALID,18.6138,VALID,123,VALID,0,
2012-07-13, 03:42:05,VALID,915.911,VALID,0,VALID,96.886,VALID,0,VALID,18.5372,VALID,123,VALID,0,
2012-07-13, 03:43:05,VALID,915.904,VALID,0,VALID,96.9165,VALID,0,VALID,18.5553,VALID,123,VALID,0,
2012-07-13, 03:44:05,VALID,915.898,VALID,0,VALID,96.9775,VALID,0,VALID,18.5358,VALID,123,VALID,0,
2012-07-13, 03:45:05,VALID,915.901,VALID,0,VALID,96.9012,VALID,0,VALID,18.5567,VALID,123,VALID,0,
2012-07-13, 03:46:05,VALID,915.874,VALID,0,VALID,96.9317,VALID,0,VALID,18.5163,VALID,123,VALID,0,
2012-07-13, 03:47:05,VALID,915.906,VALID,0,VALID,96.9698,VALID,0,VALID,18.5163,VALID,123,VALID,0,
2012-07-13, 03:48:05,VALID,915.88,VALID,0,VALID,96.9851,VALID,0,VALID,18.5762,VALID,123,VALID,0,
2012-07-13, 03:49:05,VALID,915.889,VALID,0,VALID,96.9622,VALID,0,VALID,18.5748,VALID,123,VALID,0,
2012-07-13, 03:50:05,VALID,915.906,VALID,0,VALID,96.9241,VALID,0,VALID,18.6347,VALID,123,VALID,0,
2012-07-13, 03:51:05,VALID,915.863,VALID,0,VALID,96.886,VALID,0,VALID,18.5553,VALID,123,VALID,0,
2012-07-13, 03:52:05,VALID,915.882,VALID,0,VALID,96.8936,VALID,0,VALID,18.5943,VALID,123,VALID,0,
2012-07-13, 03:53:05,VALID,915.876,VALID,0,VALID,96.886,VALID,0,VALID,18.6152,VALID,123,VALID,0,
2012-07-13, 03:54:05,VALID,915.862,VALID,0,VALID,96.8555,VALID,0,VALID,18.6152,VALID,123,VALID,0,
2012-07-13, 03:55:05,VALID,915.848,VALID,0,VALID,96.8479,VALID,0,VALID,18.5943,VALID,123,VALID,0,
2012-07-13, 03:56:05,VALID,915.849,VALID,0,VALID,96.8174,VALID,0,VALID,18.5553,VALID,123,VALID,0,
2012-07-13, 03:57:05,VALID,915.845,VALID,0,VALID,96.8174,VALID,0.107441,VALID,18.5943,VALID,123,VALID,0,